Location: Les Jeannots
(43.2262°N, 5.5774°E)
Time: 19:07:07
(UTC+00:00)

Cosmos 1825 - Pass Details

Date: 05 July 2020
Orbit: 502 x 509 km, 82.5° (Epoch: 12 August)

Event Time Altitude Azimuth Distance (km) Brightness Sun altitude
Exits shadow 21:58:03 24° 80° (E) 1,100 3.7 -19.9°
Drops below altitude 10° 22:00:46 10° 35° (NE) 1,734 5.2 -20.1°
Sets 22:03:11 0° 22° (NNE) 2,626 6.5 -20.3°
